| time (UTC) | temp F | wind direction | speed MPH | gust MPH | rain 1hr in | rain 24hr in | rain mn in | humidity % | barometer mb |
| 20260505191556 | 57 | 310 | 4.0 | 6.0 | 0.00 | 0.00 | 0.00 | 82 | 1021.6 |
| 20260505190014 | 57 | 328 | 3.0 | 5.0 | 0.00 | 0.00 | 0.00 | 82 | 1021.7 |
| 20260505184513 | 57 | 332 | 2.0 | 5.0 | 0.00 | 0.00 | 0.00 | 82 | 1021.6 |
| 20260505183021 | 57 | 313 | 2.0 | 6.0 | 0.00 | 0.00 | 0.00 | 82 | 1021.6 |
| 20260505181513 | 57 | 323 | 3.0 | 6.0 | 0.00 | 0.00 | 0.00 | 83 | 1021.6 |
| 20260505180035 | 57 | 332 | 2.0 | 5.0 | 0.00 | 0.00 | 0.00 | 83 | 1021.6 |
| 20260505174535 | 57 | 341 | 3.0 | 5.0 | 0.00 | 0.00 | 0.00 | 84 | 1021.7 |
| 20260505173033 | 57 | 340 | 2.0 | 4.0 | 0.00 | 0.00 | 0.00 | 84 | 1021.8 |
| 20260505171533 | 57 | 341 | 3.0 | 5.0 | 0.00 | 0.00 | 0.00 | 83 | 1021.8 |
| 20260505170032 | 57 | 39 | 1.0 | 6.0 | 0.00 | 0.00 | 0.00 | 83 | 1021.9 |
| 20260505164550 | 57 | 5 | 3.0 | 5.0 | 0.00 | 0.00 | 0.00 | 83 | 1022.0 |
| 20260505163013 | 57 | 38 | 2.0 | 3.0 | 0.00 | 0.00 | 0.00 | 83 | 1022.2 |
| 20260505161512 | 58 | 33 | 0.0 | 1.0 | 0.00 | 0.00 | 0.00 | 83 | 1022.3 |
| 20260505153013 | 58 | 336 | 1.0 | 4.0 | 0.00 | 0.00 | 0.00 | 81 | 1022.5 |
| 20260505151513 | 58 | 333 | 2.0 | 5.0 | 0.00 | 0.00 | 0.00 | 81 | 1022.5 |
| 20260505124559 | 58 | 331 | 1.0 | 3.0 | 0.00 | 0.00 | 0.00 | 81 | 1023.4 |
| 20260505123038 | 58 | 317 | 1.0 | 2.0 | 0.00 | 0.00 | 0.00 | 81 | 1023.3 |
| 20260505121537 | 58 | 315 | 1.0 | 3.0 | 0.00 | 0.00 | 0.00 | 80 | 1023.4 |
| 20260505120048 | 59 | 325 | 1.0 | 3.0 | 0.00 | 0.00 | 0.00 | 80 | 1023.4 |
| 20260505114536 | 59 | 329 | 1.0 | 2.0 | 0.00 | 0.00 | 0.00 | 80 | 1023.3 |
| 20260505113038 | 59 | 337 | 1.0 | 3.0 | 0.00 | 0.00 | 0.00 | 80 | 1023.4 |
| 20260505111535 | 59 | 325 | 0.0 | 0.0 | 0.00 | 0.00 | 0.00 | 79 | 1023.5 |
| 20260505101516 | 60 | 303 | 0.0 | 0.0 | 0.00 | 0.00 | 0.00 | 75 | 1023.4 |
| 20260505100006 | 60 | 303 | 0.0 | 2.0 | 0.00 | 0.00 | 0.00 | 75 | 1023.4 |
| 20260505094501 | 60 | 308 | 1.0 | 4.0 | 0.00 | 0.00 | 0.00 | 74 | 1023.4 |
| 20260505093107 | 60 | 333 | 0.0 | 2.0 | 0.00 | 0.00 | 0.00 | 74 | 1023.3 |
| 20260505091558 | 60 | 261 | 0.0 | 3.0 | 0.00 | 0.00 | 0.00 | 71 | 1023.2 |
| 20260505090058 | 60 | 243 | 0.0 | 0.0 | 0.00 | 0.00 | 0.00 | 71 | 1023.0 |
| 20260505084558 | 60 | 243 | 0.0 | 0.0 | 0.00 | 0.00 | 0.00 | 70 | 1022.9 |
| 20260505083103 | 61 | 243 | 0.0 | 2.0 | 0.00 | 0.00 | 0.00 | 70 | 1022.7 |
| 20260505081558 | 61 | 250 | 0.0 | 3.0 | 0.00 | 0.00 | 0.00 | 69 | 1022.5 |
| 20260505080044 | 61 | 205 | 1.0 | 5.0 | 0.00 | 0.00 | 0.00 | 67 | 1022.5 |
| 20260505074543 | 61 | 180 | 3.0 | 4.0 | 0.00 | 0.00 | 0.00 | 67 | 1022.3 |
| 20260505073043 | 61 | 173 | 3.0 | 6.0 | 0.00 | 0.00 | 0.00 | 68 | 1022.4 |
| 20260505071542 | 61 | 184 | 2.0 | 6.0 | 0.00 | 0.00 | 0.00 | 70 | 1022.3 |
| 20260505070045 | 61 | 219 | 3.0 | 7.0 | 0.00 | 0.00 | 0.00 | 70 | 1022.3 |
| 20260505064543 | 61 | 248 | 4.0 | 8.0 | 0.00 | 0.00 | 0.00 | 71 | 1022.2 |
| 20260505063040 | 61 | 219 | 4.0 | 7.0 | 0.00 | 0.00 | 0.00 | 71 | 1022.2 |
| 20260505061539 | 62 | 227 | 3.0 | 8.0 | 0.00 | 0.00 | 0.00 | 70 | 1022.2 |
| 20260505060032 | 62 | 248 | 3.0 | 6.0 | 0.00 | 0.00 | 0.00 | 68 | 1022.1 |
| 20260505054524 | 62 | 236 | 4.0 | 9.0 | 0.00 | 0.00 | 0.00 | 67 | 1022.1 |
| 20260505053023 | 62 | 235 | 5.0 | 9.0 | 0.00 | 0.00 | 0.00 | 66 | 1021.9 |
| 20260505051523 | 62 | 242 | 6.0 | 11.0 | 0.00 | 0.00 | 0.00 | 65 | 1021.9 |
| 20260505050121 | 63 | 239 | 7.0 | 12.0 | 0.00 | 0.00 | 0.00 | 61 | 1021.7 |
| 20260505041520 | 63 | 231 | 6.0 | 12.0 | 0.00 | 0.00 | 0.00 | 62 | 1021.7 |
| 20260505040006 | 62 | 226 | 6.0 | 12.0 | 0.00 | 0.00 | 0.00 | 63 | 1021.9 |
| 20260505034505 | 61 | 194 | 6.0 | 10.0 | 0.00 | 0.00 | 0.00 | 66 | 1022.1 |
| 20260505033005 | 61 | 197 | 6.0 | 10.0 | 0.00 | 0.00 | 0.00 | 65 | 1022.2 |
| 20260505031503 | 61 | 206 | 5.0 | 10.0 | 0.00 | 0.00 | 0.00 | 66 | 1022.5 |
| 20260505030002 | 64 | 237 | 3.0 | 8.0 | 0.00 | 0.00 | 0.00 | 65 | 1022.6 |
| 20260505024559 | 63 | 242 | 6.0 | 11.0 | 0.00 | 0.00 | 0.00 | 65 | 1022.8 |
| 20260505023102 | 62 | 237 | 6.0 | 9.0 | 0.00 | 0.00 | 0.00 | 64 | 1023.0 |
| 20260505021559 | 62 | 260 | 6.0 | 10.0 | 0.00 | 0.00 | 0.00 | 66 | 1022.9 |
| 20260505020058 | 62 | 249 | 4.0 | 7.0 | 0.00 | 0.00 | 0.00 | 67 | 1023.1 |
| 20260505014535 | 62 | 250 | 4.0 | 9.0 | 0.00 | 0.00 | 0.00 | 66 | 1023.1 |
| 20260505013031 | 62 | 254 | 4.0 | 9.0 | 0.00 | 0.00 | 0.00 | 67 | 1023.1 |
| 20260505011546 | 61 | 251 | 4.0 | 7.0 | 0.00 | 0.00 | 0.00 | 70 | 1022.9 |
| 20260505010026 | 61 | 257 | 3.0 | 8.0 | 0.00 | 0.00 | 0.00 | 69 | 1022.9 |
| 20260505004522 | 60 | 260 | 4.0 | 9.0 | 0.00 | 0.00 | 0.00 | 71 | 1022.7 |
| 20260505003019 | 59 | 233 | 5.0 | 9.0 | 0.00 | 0.00 | 0.00 | 74 | 1022.6 |
| 20260505001515 | 59 | 236 | 1.0 | 4.0 | 0.00 | 0.00 | 0.00 | 81 | 1022.5 |
| 20260505000014 | 58 | 213 | 3.0 | 7.0 | 0.00 | 0.00 | 0.00 | 87 | 1022.5 |
| 20260504234556 | 58 | 78 | 0.0 | 1.0 | 0.00 | 0.00 | 0.00 | 92 | 1022.4 |
| 20260504233102 | 56 | 77 | 0.0 | 1.0 | 0.00 | 0.00 | 0.00 | 92 | 1022.4 |
| 20260504231534 | 56 | 43 | 0.0 | 2.0 | 0.00 | 0.00 | 0.00 | 93 | 1022.4 |
| 20260504230030 | 56 | 42 | 0.0 | 1.0 | 0.00 | 0.00 | 0.00 | 93 | 1022.2 |
| 20260504224533 | 55 | 42 | 0.0 | 1.0 | 0.00 | 0.00 | 0.00 | 93 | 1022.0 |
| 20260504223026 | 55 | 50 | 0.0 | 3.0 | 0.00 | 0.00 | 0.00 | 93 | 1021.9 |
| 20260504221522 | 54 | 84 | 0.0 | 2.0 | 0.00 | 0.00 | 0.00 | 93 | 1021.8 |
| 20260504220020 | 54 | 41 | 0.0 | 2.0 | 0.00 | 0.00 | 0.00 | 93 | 1021.6 |
| 20260504214519 | 54 | 69 | 0.0 | 0.0 | 0.00 | 0.00 | 0.00 | 92 | 1021.4 |
| 20260504213016 | 54 | 87 | 0.0 | 0.0 | 0.00 | 0.00 | 0.00 | 92 | 1021.3 |
| 20260504211552 | 54 | 43 | 0.0 | 0.0 | 0.00 | 0.00 | 0.00 | 92 | 1021.2 |
| 20260504210050 | 54 | 20 | 0.0 | 3.0 | 0.00 | 0.00 | 0.00 | 92 | 1021.0 |
| 20260504204551 | 54 | 45 | 0.0 | 3.0 | 0.00 | 0.00 | 0.00 | 91 | 1020.7 |
| 20260504203050 | 54 | 64 | 2.0 | 4.0 | 0.00 | 0.00 | 0.00 | 91 | 1020.6 |
| 20260504201546 | 55 | 93 | 0.0 | 2.0 | 0.00 | 0.00 | 0.00 | 91 | 1020.5 |
| 20260504200044 | 55 | 50 | 2.0 | 4.0 | 0.00 | 0.00 | 0.00 | 90 | 1020.4 |
| 20260504194545 | 55 | 88 | 0.0 | 3.0 | 0.00 | 0.00 | 0.00 | 89 | 1020.3 |